Weather Roundup
Issued by NWS

Home | Current Version | Previous Version | Text Only | Print | Product List | Glossary On
Versions: 1 2 3 4 5 6 7 8 9 10 11 12 13 14 15 16 17 18 19 20 21 22 23 24 25 26 27 28 29 30 31 32 33 34 35 36 37 38 39 40 41 42 43 44 45 46 47 48 49 50
000
NZUS93 KARX 300159
HRRWXR

CURRENT HOURLY OBSERVATIONS ACROSS
MUCH OF THE UPPER MISSISSIPPI VALLEY
NATIONAL WEATHER SERVICE LA CROSSE WI
900 PM CDT TUE JUL 29 2014


...SOUTHEAST MINNESOTA...


CITY           SKY/WX    TMP DP  RH WIND       PRES   REMARKS
ROCHESTER      CLOUDY    66  56  70 W6        30.07S
ROCHESTER/MAYO CLOUDY    71  52  51 NW6       30.06R
WINONA         MOCLDY    70  59  68 SE3       30.04S
AUSTIN         CLEAR     66  54  63 W5        30.06F
ALBERT LEA     CLEAR     66  55  68 CALM      30.07S
DODGE CENTER   MOCLDY    70  55  60 W7        30.06F
PRESTON        PTCLDY    64  60  85 NW6       30.06S
OWATONNA       CLEAR     64  55  72 W5        30.06F
FARIBAULT      CLEAR     72  52  49 W5        30.06S
$$

...ELSEWHERE IN MINNESOTA...


CITY           SKY/WX    TMP DP  RH WIND       PRES   REMARKS
MINNEAPOLIS    PTCLDY    74  53  48 NW10      30.04R
INTNL FALLS    MOCLDY    63  59  87 CALM      30.04R
DULUTH         MOCLDY    59  55  87 N3        30.05F
RED WING       PTCLDY    64  63  94 CALM      30.02F
REDWOOD FALLS  CLEAR     68  54  60 NW5       30.08S
MANKATO        CLEAR     70  54  56 NW7       30.07S
WORTHINGTON    PTCLDY    64  57  77 NW3       30.13S
FAIRMONT       CLEAR     66  52  59 NW5       30.09S
$$

...SOUTHWEST WISCONSIN...


CITY           SKY/WX    TMP DP  RH WIND       PRES   REMARKS
LA CROSSE      LGT RAIN  65  61  87 W5        30.04R
PRAIRIE DU CHI MOCLDY    73  55  54 CALM      30.02S
BOSCOBEL       PTCLDY    68  55  63 VRB3      30.05R
LONE ROCK      LGT RAIN  68  59  73 N5        30.04S
PLATTEVILLE    MOCLDY    65  59  81 E3        30.05S
FORT MC COY    MOCLDY    60  59  96 CALM      30.05R
VIROQUA        CLOUDY    61  60  94 NW15G28   30.07S
WIS DELLS      CLOUDY    63  56  79 NW6       30.04S
$$

...ELSEWHERE IN WISCONSIN...


CITY           SKY/WX    TMP DP  RH WIND       PRES   REMARKS
MILWAUKEE      TSTM      62  57  83 NW10      30.04R
MADISON        CLOUDY    65  58  78 N3        30.04R
GREEN BAY      PTCLDY    60  58  92 W7        29.97S
EAU CLAIRE     CLOUDY    63  56  78 NE9       30.06R
BLACK RVR FLS  FAIR      60  60 100 CALM      30.02S FOG
MEDFORD        CLOUDY    58  55  91 CALM      30.02F
WAUSAU         LGT RAIN  60  57  89 W9        30.00S
WIS RAPIDS     MOCLDY    62  59  90 W5        30.04S
MARSHFIELD     LGT RAIN  61  57  87 NW9       30.03S
RICE LAKE      LGT RAIN  60  57  89 CALM      30.06F
$$

...NORTHEAST IOWA...


CITY           SKY/WX    TMP DP  RH WIND       PRES   REMARKS
WATERLOO       CLEAR     68  57  68 NW5       30.05S
DUBUQUE        PTCLDY    66  59  78 W6        30.04F
DECORAH        CLEAR     70  55  60 NW3       30.04F
MASON CITY     CLEAR     64  56  75 W7        30.09S
CHARLES CITY   CLEAR     64  57  77 W5        30.07S
OELWEIN        CLEAR     66  61  82 W5        30.06F
$$

...ELSEWHERE IN IOWA...


CITY           SKY/WX    TMP DP  RH WIND       PRES   REMARKS
DES MOINES     PTCLDY    71  54  54 NW5       30.07S
IOWA CITY      CLEAR     67  60  78 W5        30.06S
FORT DODGE     PTCLDY    66  57  72 CALM      30.09F
MARSHALLTOWN   CLEAR     66  60  81 NW5       30.07S
CEDAR RAPIDS   CLEAR     64  59  83 W6        30.05S
$$

...NORTHERN ILLINOIS...


CITY           SKY/WX    TMP DP  RH WIND       PRES   REMARKS
CHICAGO-OHARE  MOCLDY    72  56  57 W9        29.99S
DUPAGE         CLOUDY    69  58  67 W5        30.00S
CHICAGO-MIDWAY MOCLDY    72  58  61 W6        29.99S
MOLINE         CLEAR     67  58  72 SW5       30.04R
ROCKFORD       MOCLDY    70  54  56 NW12      30.03S
STERLING       PTCLDY    70  57  64 W7        30.03S
PEORIA         CLEAR     70  58  65 CALM      30.05S
$$

NOTE: "FAIR" INDICATES FEW OR NO CLOUDS BELOW 12,000 FEET WITH NO
SIGNIFICANT WEATHER AND/OR OBSTRUCTIONS TO VISIBILITY. WIND
SPEEDS ARE IN MILES-PER-HOUR.



USA.gov is the U.S. government's official web portal to all federal, state and local government web resources and services.